FW2402 Weather Reports


time (UTC)temp
C
wind
direction
speed
KPH
gust
KPH
rain 1hr
cm
rain 24hr
cm
rain mn
cm
humidity
%
barometer
mb
20260906004026 27 0 0.0 4.8 0.00 0.03 0.03 85 1011.8
20260906003520 27 260 1.6 6.4 0.00 0.03 0.03 85 1011.8
20260906003053 27 260 3.2 6.4 0.00 0.03 0.03 85 1011.8
20260906002518 27 260 3.2 6.4 0.00 0.03 0.03 84 1011.7
20260906002025 28 267 1.6 4.8 0.00 0.03 0.03 83 1011.7
20260906001549 28 0 0.0 9.7 0.00 0.03 0.03 83 1011.6
20260906001025 28 267 3.2 9.7 0.00 0.03 0.03 83 1011.7
20260906000525 28 0 3.2 11.3 0.00 0.03 0.03 82 1011.7
20260906000051 28 268 1.6 11.3 0.00 0.03 0.03 82 1011.5
20260905235524 28 261 6.4 11.3 0.00 0.03 0.03 82 1011.6
20260905235024 28 295 4.8 11.3 0.00 0.03 0.03 81 1011.5
20260905234547 28 286 6.4 11.3 0.00 0.03 0.03 80 1011.6
20260905234023 29 276 4.8 12.9 0.00 0.03 0.03 79 1011.7
20260905233518 29 254 8.0 12.9 0.00 0.03 0.03 78 1011.7
20260905233051 30 272 8.0 14.5 0.00 0.03 0.03 78 1011.6
20260905232524 30 271 6.4 14.5 0.00 0.03 0.03 78 1011.6
20260905232024 30 281 4.8 12.9 0.00 0.03 0.03 78 1011.4
20260905231548 30 250 6.4 14.5 0.00 0.03 0.03 78 1011.4
20260905231024 30 257 6.4 14.5 0.00 0.03 0.03 76 1011.4
20260905230524 30 258 9.7 14.5 0.00 0.03 0.03 75 1011.3
20260905230042 30 281 8.0 14.5 0.00 0.03 0.03 75 1011.5
20260905225523 30 257 9.7 16.1 0.00 0.03 0.03 75 1011.5
20260905225023 31 270 9.7 17.7 0.00 0.03 0.03 74 1011.4
20260905224611 31 275 8.0 20.9 0.00 0.03 0.03 73 1011.5
20260905224025 31 306 11.3 20.9 0.00 0.03 0.03 73 1011.3
20260905223525 31 244 11.3 16.1 0.00 0.03 0.03 73 1011.5
20260905223045 31 281 8.0 16.1 0.00 0.03 0.03 72 1011.5
20260905222524 31 279 9.7 17.7 0.00 0.03 0.03 72 1011.4
20260905222023 31 279 6.4 17.7 0.00 0.03 0.03 70 1011.3
20260905221543 31 271 12.9 19.3 0.00 0.03 0.03 70 1011.3
20260905221023 31 259 11.3 19.3 0.00 0.03 0.03 70 1011.3
20260905220522 31 274 11.3 17.7 0.00 0.03 0.03 70 1011.5
20260905220051 31 263 9.7 17.7 0.00 0.03 0.03 71 1011.5
20260905215526 31 268 4.8 14.5 0.00 0.25 0.03 71 1011.5
20260905215025 31 277 8.0 22.5 0.00 0.25 0.03 71 1011.6
20260905214551 31 269 11.3 22.5 0.00 0.25 0.03 69 1011.6
20260905214024 32 292 12.9 22.5 0.00 0.25 0.03 68 1011.7
20260905213525 32 272 12.9 19.3 0.00 0.25 0.03 70 1011.6
20260905213045 32 294 11.3 19.3 0.00 0.25 0.03 69 1011.5
20260905212530 32 259 12.9 19.3 0.00 0.25 0.03 68 1011.6
20260905212022 32 273 12.9 19.3 0.00 0.25 0.03 70 1011.6
20260905211547 32 276 9.7 17.7 0.00 0.25 0.03 69 1011.6
20260905211018 32 234 6.4 22.5 0.00 0.25 0.03 71 1011.6
20260905210518 32 268 11.3 22.5 0.00 0.25 0.03 70 1011.6
20260905210049 32 281 14.5 20.9 0.00 0.25 0.03 69 1011.5
20260905205524 32 282 9.7 20.9 0.00 1.40 0.03 67 1011.5
20260905205024 32 261 12.9 20.9 0.00 1.40 0.03 68 1011.6
20260905204544 32 267 9.7 17.7 0.00 1.40 0.03 67 1011.6
20260905204024 32 265 11.3 17.7 0.00 1.40 0.03 70 1011.6
20260905203521 32 263 6.4 17.7 0.00 1.40 0.03 69 1011.6
20260905203043 32 267 9.7 20.9 0.00 1.40 0.03 67 1011.5
20260905202522 32 294 9.7 20.9 0.00 1.40 0.03 68 1011.5
20260905202020 32 242 14.5 22.5 0.00 1.40 0.03 67 1011.5
20260905201544 32 269 14.5 22.5 0.00 1.40 0.03 67 1011.6
20260905201018 32 288 12.9 19.3 0.00 1.40 0.03 67 1011.7
20260905200527 32 257 11.3 20.9 0.00 1.40 0.03 66 1011.8
20260905200043 32 261 11.3 20.9 0.00 1.40 0.03 67 1011.7
20260905195523 32 282 11.3 17.7 0.00 1.47 0.03 68 1011.7
20260905195028 32 277 12.9 24.1 0.00 1.47 0.03 68 1011.7
20260905194549 32 218 17.7 24.1 0.00 1.47 0.03 67 1011.7
20260905194021 32 275 16.1 24.1 0.00 1.47 0.03 67 1011.7
20260905193522 32 274 14.5 22.5 0.00 1.47 0.03 69 1011.7
20260905193043 32 285 12.9 24.1 0.00 1.47 0.03 70 1011.7
20260905192519 32 268 14.5 24.1 0.00 1.47 0.03 69 1011.8
20260905192023 32 266 14.5 24.1 0.00 1.47 0.03 70 1011.8
20260905191541 32 248 11.3 20.9 0.00 1.47 0.03 70 1011.9
20260905191021 32 275 11.3 25.7 0.00 1.47 0.03 69 1012.1
20260905190524 31 271 11.3 25.7 0.00 1.47 0.03 69 1012.1
20260905190048 31 268 16.1 27.4 0.00 1.47 0.03 70 1012.1
20260905185523 32 254 16.1 27.4 0.00 1.55 0.03 69 1012.0
20260905185023 32 288 12.9 24.1 0.00 1.55 0.03 69 1012.0
20260905184555 32 261 11.3 24.1 0.00 1.55 0.03 69 1012.0
20260905184021 32 269 16.1 24.1 0.00 1.55 0.03 69 1012.1
20260905183522 32 238 12.9 22.5 0.00 1.55 0.03 72 1012.0
20260905183050 32 243 12.9 20.9 0.00 1.55 0.03 70 1011.9
20260905182525 32 257 8.0 20.9 0.00 1.55 0.03 76 1012.2
20260905182026 32 257 9.7 20.9 0.00 1.55 0.03 73 1012.3
20260905181548 31 277 4.8 14.5 0.00 1.55 0.03 78 1012.4
20260905181023 31 242 1.6 8.0 0.00 1.55 0.03 80 1012.4
20260905180524 30 253 1.6 8.0 0.00 1.55 0.03 82 1012.5
20260905180047 30 242 0.0 8.0 0.00 1.55 0.03 82 1012.5
20260905175518 30 219 1.6 8.0 0.00 1.55 0.03 83 1012.7
20260905175019 29 254 0.0 6.4 0.00 1.55 0.03 83 1012.7
20260905174542 28 229 1.6 6.4 0.00 1.55 0.03 82 1012.5
20260905174018 28 0 0.0 4.8 0.00 1.55 0.03 80 1012.7
20260905173525 28 258 0.0 4.8 0.00 1.55 0.03 80 1012.8
20260905173105 28 0 0.0 3.2 0.00 1.55 0.03 83 1012.9
20260905172524 27 0 0.0 8.0 0.00 1.55 0.03 82 1013.1
20260905172024 27 0 0.0 12.9 0.00 1.55 0.03 80 1013.2
20260905171547 27 209 1.6 20.9 0.00 1.55 0.03 79 1013.3
20260905171023 28 233 3.2 20.9 0.00 1.55 0.03 78 1013.4
20260905170523 28 225 12.9 30.6 0.00 1.55 0.03 78 1013.3
20260905170045 29 247 17.7 30.6 0.00 1.55 0.03 78 1013.3
20260905165519 31 238 4.8 14.5 0.00 1.55 0.03 76 1013.3
20260905165026 31 244 3.2 9.7 0.00 1.55 0.03 77 1013.3
20260905164553 31 0 1.6 12.9 0.00 1.55 0.03 80 1013.5
20260905164025 31 0 4.8 12.9 0.00 1.55 0.03 74 1013.5
20260905163528 31 247 8.0 12.9 0.00 1.55 0.03 78 1013.7
20260905163049 30 268 4.8 12.9 0.00 1.55 0.03 77 1013.7
20260905162523 30 272 1.6 12.9 0.00 1.55 0.03 77 1013.8
20260905162023 30 276 4.8 12.9 0.00 1.55 0.03 78 1013.9
20260905161600 31 251 6.4 17.7 0.00 1.55 0.03 76 1014.0
20260905161022 31 240 9.7 17.7 0.00 1.55 0.03 77 1014.0
20260905160524 30 249 9.7 14.5 0.00 1.55 0.03 78 1014.2
20260905160048 31 266 1.6 14.5 0.00 1.55 0.03 80 1014.2
20260905155528 30 247 8.0 14.5 0.00 1.55 0.03 79 1014.2
20260905155024 30 284 3.2 11.3 0.00 1.55 0.03 81 1014.3
20260905154546 30 248 1.6 16.1 0.00 1.55 0.03 79 1014.1
20260905154032 30 238 6.4 20.9 0.00 1.55 0.03 80 1014.3
20260905153525 30 265 4.8 20.9 0.00 1.55 0.03 77 1014.3
20260905153047 30 251 8.0 20.9 0.00 1.55 0.03 80 1014.1
20260905152523 30 236 6.4 17.7 0.00 1.55 0.03 80 1014.2
20260905152023 30 246 3.2 14.5 0.00 1.55 0.03 80 1014.1
20260905151544 30 0 4.8 14.5 0.00 1.55 0.03 85 1014.4
20260905151020 30 264 8.0 14.5 0.00 1.55 0.03 82 1014.5
20260905150523 30 248 3.2 11.3 0.00 1.55 0.03 83 1014.4
20260905150040 30 292 1.6 12.9 0.00 1.55 0.03 84 1014.4
20260905145525 30 250 6.4 17.7 0.00 1.55 0.03 84 1014.4
20260905145024 29 234 11.3 17.7 0.00 1.55 0.03 83 1014.4
20260905144541 29 267 8.0 16.1 0.00 1.55 0.03 84 1014.3
20260905144025 29 284 9.7 16.1 0.00 1.55 0.03 84 1014.3
20260905143524 29 255 3.2 12.9 0.00 1.55 0.03 87 1014.4
20260905143047 28 250 0.0 12.9 0.00 1.55 0.03 88 1014.4
20260905142522 29 242 3.2 12.9 0.00 1.55 0.03 89 1014.4
20260905142023 28 253 4.8 11.3 0.00 1.55 0.03 88 1014.4
20260905141542 28 243 3.2 9.7 0.00 1.55 0.03 89 1014.4
20260905141026 28 329 0.0 8.0 0.03 1.55 0.03 90 1014.5
20260905140523 28 245 1.6 8.0 0.03 1.55 0.03 90 1014.3
20260905140041 27 238 3.2 6.4 0.03 1.55 0.03 91 1014.4
20260905135525 27 257 3.2 6.4 0.03 1.55 0.03 93 1014.4
20260905135025 27 0 0.0 3.2 0.03 1.55 0.03 93 1014.4
20260905134544 27 0 0.0 3.2 0.03 1.55 0.03 95 1014.3
20260905134025 27 0 0.0 3.2 0.03 1.55 0.03 96 1014.3
20260905133522 26 0 0.0 6.4 0.03 1.55 0.03 96 1014.3
20260905133042 26 0 0.0 8.0 0.03 1.55 0.03 97 1014.4
20260905132523 26 104 1.6 8.0 0.03 1.55 0.03 97 1014.3
20260905132021 26 137 1.6 6.4 0.03 1.55 0.03 97 1014.3
20260905131540 25 0 1.6 6.4 0.03 1.55 0.03 97 1014.1
20260905131024 25 241 1.6 6.4 0.00 1.52 0.00 97 1014.2
20260905130524 25 0 0.0 1.6 0.00 1.52 0.00 97 1014.2
20260905130044 25 106 0.0 3.2 0.00 1.52 0.00 97 1014.2
20260905125526 25 0 0.0 3.2 0.00 1.52 0.00 97 1014.1
20260905125025 25 0 0.0 4.8 0.00 1.52 0.00 97 1014.2
20260905124542 25 0 0.0 6.4 0.00 1.52 0.00 97 1014.2
20260905124023 25 0 0.0 6.4 0.00 1.52 0.00 97 1014.2
20260905123520 25 0 0.0 4.8 0.00 1.52 0.00 97 1014.1
20260905123103 25 175 0.0 3.2 0.00 1.52 0.00 97 1014.1
20260905122525 24 0 0.0 3.2 0.00 1.52 0.00 97 1014.1
20260905122025 24 0 0.0 3.2 0.00 1.52 0.00 97 1014.0
20260905121553 24 0 0.0 0.0 0.00 1.52 0.00 97 1014.2
20260905121025 24 0 0.0 0.0 0.00 1.52 0.00 97 1014.1
20260905120524 24 0 0.0 0.0 0.00 1.52 0.00 97 1014.1
20260905120042 23 0 0.0 0.0 0.00 1.52 0.00 97 1014.0
20260905115526 23 0 0.0 0.0 0.00 1.52 0.00 97 1013.9
20260905115022 23 0 0.0 0.0 0.00 1.52 0.00 97 1013.8
20260905114542 23 0 0.0 0.0 0.00 1.52 0.00 97 1013.8
20260905114024 23 0 0.0 0.0 0.00 1.52 0.00 97 1013.8
20260905113525 23 0 0.0 0.0 0.00 1.52 0.00 97 1013.7
20260905113041 23 0 0.0 0.0 0.00 1.52 0.00 97 1013.6
20260905112525 23 0 0.0 0.0 0.00 1.52 0.00 97 1013.4
20260905112024 23 0 0.0 0.0 0.00 1.52 0.00 97 1013.5
20260905111543 23 0 0.0 0.0 0.00 1.52 0.00 97 1013.5
20260905111024 23 0 0.0 0.0 0.00 1.52 0.00 97 1013.6
20260905110523 23 0 0.0 0.0 0.00 1.52 0.00 97 1013.7
20260905110041 23 0 0.0 0.0 0.00 1.52 0.00 97 1013.6
20260905105518 23 0 0.0 0.0 0.00 1.52 0.00 97 1013.5
20260905105021 23 0 0.0 0.0 0.00 1.52 0.00 97 1013.3
20260905104544 23 0 0.0 0.0 0.00 1.52 0.00 97 1013.3
20260905104024 23 0 0.0 0.0 0.00 1.52 0.00 97 1013.3
20260905103527 23 0 0.0 3.2 0.00 1.52 0.00 97 1013.4
20260905103041 23 0 0.0 3.2 0.00 1.52 0.00 97 1013.4
20260905102525 23 116 0.0 3.2 0.00 1.52 0.00 97 1013.4
20260905102026 23 0 0.0 0.0 0.00 1.52 0.00 97 1013.3
20260905101557 23 0 0.0 0.0 0.00 1.52 0.00 97 1013.3
20260905101022 23 0 0.0 0.0 0.00 1.52 0.00 97 1013.3
20260905100523 23 0 0.0 0.0 0.00 1.52 0.00 97 1013.3
20260905100114 23 0 0.0 0.0 0.00 1.52 0.00 97 1013.2
20260905095526 23 0 0.0 0.0 0.00 1.52 0.00 97 1013.3
20260905095024 23 0 0.0 0.0 0.00 1.52 0.00 97 1013.2
20260905094548 23 0 0.0 0.0 0.00 1.52 0.00 97 1013.2
20260905094024 23 0 0.0 0.0 0.00 1.52 0.00 97 1013.1
20260905093525 23 0 0.0 0.0 0.00 1.52 0.00 97 1013.1
20260905093044 23 0 0.0 0.0 0.00 1.52 0.00 97 1013.1
20260905092526 23 0 0.0 0.0 0.00 1.52 0.00 97 1013.1
20260905092026 23 0 0.0 0.0 0.00 1.52 0.00 97 1013.1
20260905091554 23 0 0.0 0.0 0.00 1.52 0.00 97 1013.0
20260905091021 23 0 0.0 0.0 0.00 1.52 0.00 97 1013.0
20260905090525 23 0 0.0 0.0 0.00 1.52 0.00 97 1013.0
20260905090040 23 0 0.0 0.0 0.00 1.52 0.00 97 1013.0
20260905085527 23 0 0.0 0.0 0.00 1.52 0.00 97 1013.0
20260905085025 23 0 0.0 0.0 0.00 1.52 0.00 97 1012.9
20260905084549 23 0 0.0 0.0 0.00 1.52 0.00 97 1012.8
20260905084024 23 0 0.0 0.0 0.00 1.52 0.00 97 1012.8
20260905083520 23 0 0.0 0.0 0.00 1.52 0.00 97 1012.8
20260905083103 23 0 0.0 0.0 0.00 1.52 0.00 97 1012.8
20260905082523 23 0 0.0 0.0 0.00 1.52 0.00 97 1012.9
20260905082021 23 0 0.0 0.0 0.00 1.52 0.00 97 1012.9
20260905081541 23 0 0.0 0.0 0.00 1.52 0.00 97 1013.0
20260905081021 23 0 0.0 0.0 0.00 1.52 0.00 97 1013.0
20260905080527 23 0 0.0 0.0 0.00 1.52 0.00 97 1013.0
20260905080048 23 0 0.0 0.0 0.00 1.52 0.00 97 1013.0
20260905075523 23 0 0.0 0.0 0.00 1.52 0.00 97 1013.1
20260905075023 23 0 0.0 0.0 0.00 1.52 0.00 97 1013.0
20260905074547 23 0 0.0 0.0 0.00 1.52 0.00 97 1013.1
20260905074021 23 0 0.0 0.0 0.00 1.52 0.00 97 1013.0
20260905073523 23 0 0.0 0.0 0.00 1.52 0.00 97 1013.1
20260905073053 23 0 0.0 0.0 0.00 1.52 0.00 97 1013.0
20260905072523 23 0 0.0 0.0 0.00 1.52 0.00 97 1013.1
20260905072023 23 0 0.0 0.0 0.00 1.52 0.00 97 1013.1
20260905071543 23 0 0.0 0.0 0.00 1.52 0.00 97 1013.1
20260905071020 23 0 0.0 0.0 0.00 1.52 0.00 97 1013.0
20260905070527 23 0 0.0 0.0 0.00 1.52 0.00 97 1013.2
20260905070051 23 0 0.0 0.0 0.00 1.52 0.00 97 1013.3
20260905065525 23 0 0.0 0.0 0.00 1.52 0.00 97 1013.1
20260905065022 23 0 0.0 0.0 0.00 1.52 0.00 97 1013.3
20260905064607 23 0 0.0 0.0 0.00 1.52 0.00 97 1013.4
20260905064020 23 0 0.0 0.0 0.00 1.52 0.00 97 1013.4
20260905063528 23 0 0.0 0.0 0.00 1.52 0.00 97 1013.4
20260905063042 23 0 0.0 0.0 0.00 1.52 0.00 97 1013.4
20260905062519 23 0 0.0 0.0 0.00 1.52 0.00 97 1013.4
20260905062022 23 0 0.0 0.0 0.00 1.52 0.00 97 1013.5
20260905061545 23 0 0.0 0.0 0.00 1.52 0.00 97 1013.5
20260905061021 23 0 0.0 0.0 0.00 1.52 0.00 97 1013.5
20260905060524 23 0 0.0 0.0 0.00 1.52 0.00 97 1013.5
20260905060046 23 0 0.0 0.0 0.00 1.52 0.00 97 1013.6
20260905055522 23 0 0.0 0.0 0.00 1.52 0.00 97 1013.7
20260905055023 23 0 0.0 0.0 0.00 1.52 0.00 97 1013.7
20260905054620 23 0 0.0 0.0 0.00 1.52 0.00 97 1013.7
20260905054023 23 0 0.0 0.0 0.00 1.52 0.00 97 1013.8
20260905053523 24 0 0.0 0.0 0.00 1.52 0.00 97 1013.7
20260905053044 24 0 0.0 0.0 0.00 1.52 0.00 97 1013.8
20260905052523 23 0 0.0 0.0 0.00 1.52 0.00 97 1013.9
20260905052024 24 0 0.0 0.0 0.00 1.52 0.00 97 1013.9
20260905051542 24 0 0.0 0.0 0.00 1.52 0.00 97 1013.9
20260905051024 24 0 0.0 0.0 0.00 1.52 0.00 97 1014.0
20260905050527 24 0 0.0 0.0 0.00 1.52 0.00 97 1014.1
20260905050041 24 0 0.0 0.0 0.00 1.52 0.00 97 1014.2
20260905045528 24 0 0.0 0.0 0.00 1.52 0.00 97 1014.2
20260905045024 24 0 0.0 1.6 0.00 1.52 0.00 97 1014.3
20260905044545 24 0 0.0 1.6 0.00 1.52 0.00 97 1014.4
20260905044020 24 0 0.0 0.0 0.00 1.52 0.00 97 1014.4
20260905043523 24 0 0.0 0.0 0.00 1.52 0.00 97 1014.4
20260905043044 24 0 0.0 0.0 0.00 1.52 0.00 97 1014.4
20260905042519 24 0 0.0 0.0 0.00 1.52 0.00 97 1014.4
20260905042024 24 0 0.0 0.0 0.00 1.52 0.00 97 1014.4
20260905041540 24 0 0.0 0.0 0.00 1.52 0.00 97 1014.5
20260905041024 24 0 0.0 0.0 0.00 1.52 0.00 97 1014.5
20260905040528 24 0 0.0 3.2 0.00 1.52 0.00 97 1014.5
20260905040042 24 0 0.0 3.2 0.00 1.52 0.00 97 1014.5
20260905035523 24 153 1.6 3.2 0.00 1.52 1.52 97 1014.5
20260905035022 24 149 0.0 3.2 0.00 1.52 1.52 97 1014.5
20260905034549 24 0 0.0 6.4 0.00 1.52 1.52 97 1014.5
20260905034023 24 0 0.0 6.4 0.00 1.52 1.52 97 1014.6
20260905033523 24 167 0.0 4.8 0.00 1.52 1.52 97 1014.5
20260905033042 24 0 0.0 4.8 0.00 1.52 1.52 96 1014.6
20260905032519 24 146 0.0 8.0 0.00 1.52 1.52 97 1014.5
20260905032024 24 150 1.6 8.0 0.00 1.52 1.52 97 1014.6
20260905031550 24 166 3.2 8.0 0.00 1.52 1.52 97 1014.5
20260905031025 24 151 1.6 8.0 0.00 1.52 1.52 97 1014.6
20260905030525 24 172 1.6 6.4 0.00 1.52 1.52 96 1014.6
20260905030046 24 142 1.6 6.4 0.00 1.52 1.52 96 1014.5
20260905025525 24 137 3.2 6.4 0.00 1.52 1.52 96 1014.6
20260905025039 24 127 1.6 4.8 0.00 1.52 1.52 96 1014.6
20260905024554 24 0 0.0 4.8 0.00 1.52 1.52 97 1014.7
20260905024023 24 0 0.0 0.0 0.00 1.52 1.52 97 1014.8
20260905023518 24 0 0.0 0.0 0.00 1.52 1.52 96 1014.7
20260905023040 24 0 0.0 0.0 0.00 1.52 1.52 96 1014.7
20260905022524 24 0 0.0 0.0 0.00 1.52 1.52 96 1014.7
20260905022028 24 0 0.0 0.0 0.00 1.52 1.52 97 1014.7
20260905021549 24 0 0.0 0.0 0.00 1.52 1.52 96 1014.7
20260905021020 24 0 0.0 0.0 0.00 1.52 1.52 96 1014.6
20260905020527 24 0 0.0 0.0 0.00 1.52 1.52 96 1014.6
20260905020052 24 0 0.0 0.0 0.00 1.52 1.52 96 1014.7
20260905015523 24 0 0.0 0.0 0.00 1.55 1.52 96 1014.5
20260905015020 24 0 0.0 0.0 0.00 1.55 1.52 96 1014.6
20260905014543 24 0 0.0 0.0 0.00 1.55 1.52 96 1014.5
20260905014019 24 0 0.0 0.0 0.00 1.55 1.52 96 1014.4
20260905013526 24 0 0.0 0.0 0.00 1.55 1.52 96 1014.3
20260905013041 24 0 0.0 0.0 0.00 1.55 1.52 96 1014.3
20260905012526 24 0 0.0 0.0 0.00 1.55 1.52 96 1014.3
20260905012024 24 0 0.0 0.0 0.00 1.55 1.52 96 1014.2
20260905011552 24 0 0.0 0.0 0.00 1.55 1.52 96 1014.2
20260905011027 24 0 0.0 0.0 0.00 1.55 1.52 96 1014.3
20260905010525 24 0 0.0 3.2 0.00 1.55 1.52 96 1014.1
20260905010044 24 0 0.0 4.8 0.00 1.55 1.52 96 1014.1
20260905005523 24 49 1.6 4.8 0.00 1.75 1.52 96 1013.9
20260905005020 24 0 0.0 4.8 0.00 1.75 1.52 96 1014.0
20260905004544 24 105 1.6 4.8 0.00 1.75 1.52 96 1014.0